Starlink 4716

operational
NORAD ID: 53706 Int'l Des: 2022-107 Owner: SPXS Country: US Constellation: starlink
LEOCIRCULAR

关于 Starlink 4716

正在加载描述...

实时位置

正在加载3D地球...

即将过境

高度历史

Altitude vs Time

uPlot chart will show altitude changes over time

两行轨道根数

1 53706U 22107G 26035.37523536 .00000262 00000-0 34537-4 0 9999
2 53706 53.2181 33.7344 0001216 90.1539 269.9592 15.08848148189821
Epoch: Feb 4, 2026 • Age: 13 hours

当前状态

高度 545.5 km
速度 7.60 km/s
星下点 53.32°N, 10.95°E
发射日期 Sep 5, 2022
运行时间 3.4 years
类型 internet

技术详情

分类 Payload
质量 305.00 kg
干质量 290.00 kg
总质量 305.00 kg
长度 0.20 m
直径 2.80 m
跨度 9.00 m
形状 Box + pan
制造商 SPXS
平台类型 Starlink
阶段状态 In Orbit
所有者/国家 SPXS/US

大型星座

Loading constellations...